Location: Bogis-Bossey
(46.3500°N, 6.1667°E)
Time: 00:40:53
(UTC+00:00)

USA 238 DEB - Pass Details

Date: 06 March 2024
Orbit: 948 x 1263 km, 63.4° (Epoch: 09 April)

Event Time Altitude Azimuth Distance (km) Brightness Sun altitude
Exits shadow 04:35:22 16° 298° (WNW) 2,421 5.1 -16.2°
Maximum altitude 04:39:03 25° 340° (NNW) 2,023 5.0 -15.6°
Drops below altitude 10° 04:44:40 10° 33° (NNE) 2,987 6.6 -14.6°
Sets 04:48:04 0° 46° (NE) 4,006 7.6 -14.0°
